| time (UTC) | temp F | wind direction | speed MPH | gust MPH | rain 1hr in | rain 24hr in | rain mn in | humidity % | barometer mb |
| 20260507133028 | 62 | 150 | 5.0 | 10.0 | 0.01 | 0.01 | 0.01 | 83 | 1011.4 |
| 20260507131527 | 62 | 150 | 4.0 | 9.0 | 0.00 | 0.00 | 0.00 | 80 | 1011.4 |
| 20260507130040 | 66 | 150 | 5.0 | 11.0 | 0.00 | 0.00 | 0.00 | 73 | 1011.5 |
| 20260507124530 | 67 | 126 | 7.0 | 12.0 | 0.00 | 0.00 | 0.00 | 70 | 1011.4 |
| 20260507123030 | 67 | 94 | 7.0 | 15.0 | 0.00 | 0.00 | 0.00 | 69 | 1011.5 |
| 20260507121530 | 67 | 145 | 6.0 | 13.0 | 0.00 | 0.00 | 0.00 | 69 | 1011.6 |
| 20260507120030 | 67 | 101 | 6.0 | 14.0 | 0.00 | 0.00 | 0.00 | 69 | 1011.8 |
| 20260507114531 | 67 | 64 | 6.0 | 13.0 | 0.00 | 0.00 | 0.00 | 70 | 1011.8 |
| 20260507113030 | 66 | 138 | 8.0 | 14.0 | 0.00 | 0.00 | 0.00 | 71 | 1011.7 |
| 20260507111530 | 66 | 127 | 9.0 | 16.0 | 0.00 | 0.00 | 0.00 | 72 | 1011.9 |
| 20260507110030 | 66 | 105 | 7.0 | 16.0 | 0.00 | 0.00 | 0.00 | 72 | 1012.0 |
| 20260507104527 | 67 | 64 | 10.0 | 17.0 | 0.00 | 0.00 | 0.00 | 70 | 1012.1 |
| 20260507103032 | 66 | 93 | 12.0 | 17.0 | 0.00 | 0.00 | 0.00 | 72 | 1012.1 |
| 20260507101528 | 66 | 81 | 11.0 | 18.0 | 0.00 | 0.00 | 0.00 | 72 | 1012.1 |
| 20260507100036 | 66 | 117 | 10.0 | 19.0 | 0.00 | 0.00 | 0.00 | 72 | 1012.0 |
| 20260507094528 | 66 | 87 | 11.0 | 18.0 | 0.00 | 0.00 | 0.00 | 71 | 1012.1 |
| 20260507093028 | 66 | 100 | 10.0 | 18.0 | 0.00 | 0.00 | 0.00 | 71 | 1012.2 |
| 20260507091535 | 65 | 76 | 10.0 | 19.0 | 0.00 | 0.00 | 0.00 | 73 | 1012.1 |
| 20260507090028 | 65 | 58 | 10.0 | 14.0 | 0.00 | 0.00 | 0.00 | 73 | 1012.1 |
| 20260507084530 | 65 | 92 | 10.0 | 15.0 | 0.00 | 0.00 | 0.00 | 75 | 1012.1 |
| 20260507083028 | 64 | 61 | 8.0 | 14.0 | 0.00 | 0.00 | 0.00 | 76 | 1012.2 |
| 20260507081530 | 64 | 78 | 9.0 | 15.0 | 0.00 | 0.00 | 0.00 | 74 | 1012.2 |
| 20260507080028 | 64 | 78 | 6.0 | 13.0 | 0.00 | 0.00 | 0.00 | 74 | 1012.2 |
| 20260507074528 | 63 | 43 | 5.0 | 10.0 | 0.00 | 0.00 | 0.00 | 76 | 1012.2 |
| 20260507073031 | 63 | 98 | 4.0 | 9.0 | 0.00 | 0.00 | 0.00 | 76 | 1012.2 |
| 20260507071533 | 62 | 35 | 3.0 | 8.0 | 0.00 | 0.00 | 0.00 | 80 | 1012.0 |
| 20260507070033 | 60 | 35 | 1.0 | 6.0 | 0.00 | 0.00 | 0.00 | 84 | 1011.8 |
| 20260507064550 | 59 | 94 | 1.0 | 4.0 | 0.00 | 0.00 | 0.00 | 85 | 1011.7 |
| 20260507063034 | 59 | 86 | 2.0 | 3.0 | 0.00 | 0.00 | 0.00 | 85 | 1011.6 |
| 20260507061530 | 57 | 113 | 1.0 | 2.0 | 0.00 | 0.00 | 0.00 | 85 | 1011.7 |
| 20260507060030 | 57 | 113 | 1.0 | 3.0 | 0.00 | 0.00 | 0.00 | 85 | 1011.6 |
| 20260507054527 | 56 | 113 | 1.0 | 3.0 | 0.00 | 0.00 | 0.00 | 84 | 1011.6 |
| 20260507053030 | 56 | 0 | 0.0 | 3.0 | 0.00 | 0.00 | 0.00 | 84 | 1011.6 |
| 20260507051528 | 56 | 0 | 0.0 | 1.0 | 0.00 | 0.00 | 0.00 | 83 | 1011.6 |
| 20260507050039 | 57 | 113 | 1.0 | 3.0 | 0.00 | 0.00 | 0.00 | 83 | 1011.5 |
| 20260507044529 | 57 | 113 | 1.0 | 2.0 | 0.00 | 0.00 | 0.00 | 83 | 1011.4 |
| 20260507043030 | 57 | 113 | 1.0 | 3.0 | 0.00 | 0.00 | 0.00 | 83 | 1011.4 |
| 20260507041529 | 57 | 113 | 2.0 | 3.0 | 0.00 | 0.00 | 0.00 | 82 | 1011.3 |
| 20260507040030 | 57 | 114 | 1.0 | 3.0 | 0.00 | 0.00 | 0.00 | 82 | 1011.3 |
| 20260507034530 | 58 | 0 | 0.0 | 2.0 | 0.00 | 0.00 | 0.00 | 82 | 1011.3 |
| 20260507033028 | 59 | 63 | 1.0 | 3.0 | 0.00 | 0.00 | 0.00 | 82 | 1011.3 |
| 20260507031533 | 59 | 63 | 2.0 | 4.0 | 0.00 | 0.00 | 0.00 | 82 | 1011.3 |
| 20260507030035 | 59 | 66 | 2.0 | 5.0 | 0.00 | 0.00 | 0.00 | 82 | 1011.2 |
| 20260507024530 | 59 | 70 | 3.0 | 4.0 | 0.00 | 0.00 | 0.00 | 82 | 1011.4 |
| 20260507023030 | 59 | 65 | 3.0 | 6.0 | 0.00 | 0.00 | 0.00 | 82 | 1011.4 |
| 20260507021527 | 60 | 87 | 3.0 | 6.0 | 0.00 | 0.00 | 0.00 | 82 | 1011.4 |
| 20260507020029 | 60 | 87 | 3.0 | 6.0 | 0.00 | 0.00 | 0.00 | 82 | 1011.6 |
| 20260507014529 | 60 | 95 | 4.0 | 6.0 | 0.00 | 0.00 | 0.00 | 82 | 1011.7 |
| 20260507013028 | 60 | 110 | 3.0 | 6.0 | 0.00 | 0.00 | 0.00 | 82 | 1012.0 |
| 20260507011531 | 60 | 101 | 3.0 | 6.0 | 0.00 | 0.00 | 0.00 | 82 | 1011.8 |
| 20260507010043 | 60 | 103 | 3.0 | 6.0 | 0.00 | 0.00 | 0.00 | 83 | 1011.7 |
| 20260507004533 | 60 | 100 | 3.0 | 6.0 | 0.00 | 0.00 | 0.00 | 83 | 1011.8 |
| 20260507003029 | 60 | 82 | 3.0 | 7.0 | 0.00 | 0.00 | 0.00 | 83 | 1011.8 |
| 20260507001531 | 60 | 93 | 3.0 | 6.0 | 0.00 | 0.00 | 0.00 | 84 | 1011.9 |
| 20260507000028 | 60 | 71 | 3.0 | 5.0 | 0.00 | 0.00 | 0.00 | 84 | 1012.1 |
| 20260506234531 | 61 | 95 | 3.0 | 7.0 | 0.00 | 0.00 | 0.00 | 84 | 1012.2 |
| 20260506233030 | 61 | 73 | 3.0 | 6.0 | 0.00 | 0.00 | 0.00 | 84 | 1012.3 |
| 20260506231531 | 61 | 82 | 3.0 | 5.0 | 0.00 | 0.00 | 0.00 | 84 | 1012.4 |
| 20260506230039 | 61 | 74 | 3.0 | 7.0 | 0.00 | 0.00 | 0.00 | 84 | 1012.3 |
| 20260506224536 | 61 | 90 | 2.0 | 5.0 | 0.00 | 0.00 | 0.00 | 84 | 1012.3 |
| 20260506223030 | 61 | 70 | 3.0 | 5.0 | 0.00 | 0.00 | 0.00 | 84 | 1012.3 |
| 20260506221528 | 61 | 62 | 2.0 | 5.0 | 0.00 | 0.00 | 0.00 | 84 | 1012.4 |
| 20260506220035 | 61 | 60 | 1.0 | 3.0 | 0.00 | 0.00 | 0.00 | 83 | 1012.3 |
| 20260506214529 | 61 | 110 | 2.0 | 4.0 | 0.00 | 0.00 | 0.00 | 83 | 1012.5 |
| 20260506213030 | 62 | 110 | 2.0 | 8.0 | 0.00 | 0.00 | 0.00 | 83 | 1012.7 |
| 20260506211533 | 62 | 80 | 3.0 | 5.0 | 0.00 | 0.00 | 0.00 | 83 | 1012.7 |
| 20260506210031 | 62 | 65 | 2.0 | 5.0 | 0.00 | 0.00 | 0.00 | 82 | 1012.7 |
| 20260506204534 | 62 | 64 | 3.0 | 5.0 | 0.00 | 0.00 | 0.00 | 82 | 1012.6 |
| 20260506203031 | 62 | 83 | 3.0 | 7.0 | 0.00 | 0.00 | 0.00 | 81 | 1012.5 |
| 20260506201537 | 62 | 83 | 3.0 | 8.0 | 0.00 | 0.00 | 0.00 | 81 | 1012.3 |
| 20260506200030 | 63 | 91 | 4.0 | 7.0 | 0.00 | 0.00 | 0.00 | 80 | 1012.0 |
| 20260506194528 | 63 | 80 | 5.0 | 12.0 | 0.00 | 0.00 | 0.00 | 80 | 1011.8 |
| 20260506193027 | 63 | 90 | 8.0 | 12.0 | 0.00 | 0.00 | 0.00 | 79 | 1011.8 |
| 20260506191530 | 64 | 80 | 7.0 | 12.0 | 0.00 | 0.00 | 0.00 | 77 | 1011.6 |
| 20260506190030 | 64 | 97 | 8.0 | 14.0 | 0.00 | 0.00 | 0.00 | 77 | 1011.6 |
| 20260506184532 | 64 | 88 | 10.0 | 15.0 | 0.00 | 0.00 | 0.00 | 76 | 1011.3 |
| 20260506183032 | 65 | 84 | 8.0 | 15.0 | 0.00 | 0.00 | 0.00 | 74 | 1011.2 |
| 20260506181531 | 65 | 101 | 10.0 | 15.0 | 0.00 | 0.00 | 0.00 | 73 | 1011.1 |
| 20260506180032 | 65 | 85 | 5.0 | 15.0 | 0.00 | 0.00 | 0.00 | 73 | 1011.2 |
| 20260506174533 | 65 | 76 | 10.0 | 18.0 | 0.00 | 0.00 | 0.00 | 72 | 1011.1 |
| 20260506173030 | 66 | 98 | 10.0 | 18.0 | 0.00 | 0.00 | 0.00 | 72 | 1011.0 |
| 20260506171539 | 66 | 148 | 8.0 | 17.0 | 0.00 | 0.00 | 0.00 | 71 | 1010.9 |
| 20260506170029 | 66 | 121 | 6.0 | 12.0 | 0.00 | 0.00 | 0.00 | 71 | 1011.0 |
| 20260506164531 | 67 | 148 | 10.0 | 18.0 | 0.00 | 0.00 | 0.00 | 69 | 1010.9 |
| 20260506163030 | 67 | 105 | 7.0 | 15.0 | 0.00 | 0.00 | 0.00 | 68 | 1010.7 |
| 20260506161532 | 66 | 96 | 12.0 | 22.0 | 0.00 | 0.00 | 0.00 | 69 | 1010.6 |
| 20260506160030 | 67 | 131 | 10.0 | 21.0 | 0.00 | 0.00 | 0.00 | 67 | 1010.7 |
| 20260506154534 | 68 | 131 | 9.0 | 19.0 | 0.00 | 0.00 | 0.00 | 67 | 1010.4 |
| 20260506153030 | 68 | 124 | 9.0 | 23.0 | 0.00 | 0.00 | 0.00 | 68 | 1010.6 |
| 20260506151533 | 68 | 105 | 12.0 | 19.0 | 0.00 | 0.00 | 0.00 | 67 | 1010.8 |
| 20260506150028 | 69 | 99 | 16.0 | 22.0 | 0.00 | 0.00 | 0.00 | 67 | 1010.7 |
| 20260506144531 | 69 | 105 | 16.0 | 23.0 | 0.00 | 0.00 | 0.00 | 68 | 1010.7 |
| 20260506143032 | 68 | 119 | 17.0 | 27.0 | 0.00 | 0.00 | 0.00 | 68 | 1010.7 |
| 20260506141528 | 69 | 128 | 15.0 | 26.0 | 0.00 | 0.00 | 0.00 | 68 | 1010.8 |
| 20260506140033 | 70 | 132 | 11.0 | 22.0 | 0.00 | 0.00 | 0.00 | 67 | 1011.0 |
| 20260506134528 | 69 | 135 | 12.0 | 21.0 | 0.00 | 0.00 | 0.00 | 67 | 1011.1 |